COSMOS 1034

Satellite information

Favourite Embed

Satellite Type and Status

PAYLOADIN ORBIT

Key statistics

Satellite COSMOS 1034 at a glance.

Uptime

17193

Days in orbit

Revolutions

≈ 12.5

Per day

Orbit

LEO

Low Earth Orbit

Inclination

74.0

Latest

Satellite identification and parameters

Extended collection of information and parameters for COSMOS 1034.

Object identification

Identified? True

Debris? False

Object name: COSMOS 1034

International designator: 1978-091A

Object number (NORAD): 11042

Object ID (CCSDS): 11042

Country: COMMONWEALTH OF INDEPENDENT STATES (CIS)

Current information (Y/N): Y

RCS size: MEDIUM

Orbital parameters

Period: 114.906 minutes

Inclination: 74.0328 deg

SMA: 7829.291 km

Apoapsis: 1480.389 km

Periapsis: 1421.923 km

RAAN: 147.5239 deg

Eccentricy: 0.00373377

Argument of periapsis: 25.3721 deg

Mean anomaly: 81.1446 deg

Mean motion: 12.531963 rev/day

Mean motion (dot): -0.00000004 rev/day2

B* drag term: 0.000074951734 1/REarth

Two-line elements (TLE)

Creation date: Oct. 30, 2025, 3:32 a.m.

Reference frame: TEME

Reference center: EARTH

Epoch: Oct. 29, 2025, 11:03 p.m. UTC

TLE line 0: 0 COSMOS 1034

TLE line 1: 1 11042U 78091A 25302.96092177 -.00000004 00000-0 74952-4 0 9992

TLE line 2: 2 11042 74.0328 147.5239 0037338 25.3721 81.1446 12.53196300153406

Live tracking on map

Real-time ground track for satellite COSMOS 1034.

In-orbit conjunctions

A list of the most updated potential collisions computed for object COSMOS 1034.

Target Orbit TCA Probability of collision Miss distance Type
COSMOS 397 DEB LEO 2025-10-26 11:30:48 0.0001111645 429.0 (m) DEBRIS
DELTA 1 DEB SSO 2024-09-01 08:04:23 0.001244013 128.0 (m) DEBRIS
DELTA 1 DEB SSO 2024-08-06 14:17:14 0.000197816 88.0 (m) DEBRIS

Associated space launch

Military communications satellites

COSMOS 1034 was lifted into orbit during the mission ‘Kosmos-3M | Strela-1M 153-160’, on board a Kosmos-3M space rocket.

The launch took place on Oct. 4, 1978, 3:49 a.m. from 132/1 (132L).

For more information about the launch, click the button.

Launch to space Kosmos-3M | Strela-1M 153-160
Kosmos-3M | Strela-1M 153-160

Agency: N/A

Status: Launch Successful

Launch date: Oct. 4, 1978, 3:49 a.m. UTC

Rocket: Kosmos-3M

Launch pad: 132/1 (132L)

Location: Plesetsk Cosmodrome, Russian Federation

...

Latest news about this satellite

There are no fresh news available about this satellite. Check back as we update our databases every day.


Newsletter sign-up

Weekly statistics, charts and insights to help you stay on top of the space industry.